Total_Precipitation_Accumulation
0.14 0.12 0.08 0.06 0.04 0.04 0.04 0.03 0.02 0.01 0.01 0.01 0.00 0.00 0.00 0.00 0.00 0.01 0.01 0.00 0.00 0.02 0.04 0.06 0.08 0.10 0.15 0.21 0.24 0.23 0.22 0.21 0.20 0.18 0.18 0.18 0.18 0.18 0.18 0.19 0.19 0.20 0.20
0.15 0.13 0.09 0.08 0.06 0.05 0.04 0.04 0.03 0.02 0.02 0.01 0.01 0.01 0.01 0.01 0.02 0.01 0.01 0.01 0.01 0.01 0.02 0.05 0.09 0.15 0.21 0.28 0.30 0.29 0.28 0.25 0.23 0.22 0.22 0.22 0.21 0.21 0.21 0.21 0.22 0.23 0.24
0.18 0.15 0.12 0.08 0.08 0.08 0.06 0.06 0.05 0.04 0.03 0.03 0.02 0.03 0.02 0.03 0.03 0.02 0.03 0.02 0.02 0.01 0.02 0.04 0.09 0.14 0.20 0.27 0.32 0.36 0.35 0.32 0.27 0.25 0.24 0.25 0.26 0.26 0.27 0.28 0.29 0.29 0.30
0.21 0.21 0.18 0.14 0.12 0.10 0.10 0.09 0.08 0.07 0.05 0.04 0.04 0.04 0.05 0.05 0.04 0.04 0.04 0.03 0.03 0.03 0.03 0.03 0.06 0.10 0.15 0.22 0.28 0.35 0.39 0.37 0.33 0.30 0.31 0.33 0.33 0.33 0.35 0.37 0.37 0.37 0.37
0.33 0.31 0.25 0.22 0.21 0.20 0.16 0.14 0.11 0.10 0.09 0.08 0.07 0.08 0.08 0.07 0.06 0.05 0.04 0.03 0.02 0.02 0.02 0.03 0.03 0.05 0.08 0.14 0.20 0.29 0.41 0.44 0.41 0.38 0.36 0.37 0.39 0.41 0.44 0.48 0.48 0.49 0.51
0.45 0.41 0.34 0.31 0.29 0.28 0.26 0.23 0.18 0.15 0.13 0.14 0.14 0.10 0.09 0.07 0.06 0.05 0.04 0.04 0.03 0.03 0.03 0.03 0.04 0.04 0.05 0.09 0.13 0.20 0.33 0.45 0.48 0.45 0.42 0.41 0.44 0.48 0.53 0.59 0.60 0.61 0.64
0.58 0.50 0.45 0.44 0.40 0.34 0.30 0.28 0.26 0.23 0.20 0.20 0.20 0.15 0.11 0.09 0.07 0.06 0.06 0.06 0.05 0.05 0.05 0.06 0.06 0.06 0.07 0.08 0.11 0.13 0.22 0.37 0.48 0.52 0.51 0.49 0.51 0.56 0.64 0.71 0.74 0.75 0.79
0.80 0.69 0.59 0.54 0.51 0.47 0.41 0.37 0.38 0.36 0.33 0.33 0.35 0.34 0.23 0.14 0.09 0.08 0.09 0.09 0.09 0.09 0.09 0.09 0.09 0.09 0.09 0.09 0.10 0.12 0.15 0.25 0.42 0.58 0.66 0.66 0.67 0.70 0.77 0.88 0.93 1.00 1.05
1.00 0.90 0.79 0.74 0.70 0.68 0.62 0.58 0.58 0.55 0.50 0.49 0.51 0.56 0.45 0.27 0.17 0.11 0.10 0.11 0.12 0.10 0.10 0.10 0.10 0.11 0.11 0.12 0.13 0.17 0.21 0.25 0.38 0.58 0.78 0.87 0.88 0.92 1.03 1.13 1.21 1.30 1.31
1.10 1.06 1.02 0.94 0.85 0.82 0.77 0.81 0.87 0.83 0.76 0.64 0.57 0.55 0.55 0.48 0.43 0.29 0.16 0.14 0.14 0.13 0.13 0.13 0.13 0.14 0.15 0.17 0.20 0.25 0.31 0.37 0.48 0.64 0.86 1.02 1.12 1.24 1.40 1.48 1.55 1.62 1.57
1.02 1.09 1.09 1.05 0.93 0.84 0.82 0.84 0.86 0.89 0.86 0.80 0.74 0.71 0.69 0.62 0.57 0.54 0.36 0.22 0.21 0.20 0.20 0.20 0.21 0.23 0.25 0.28 0.31 0.37 0.45 0.51 0.64 0.80 1.02 1.24 1.42 1.56 1.72 1.84 1.90 1.94 1.92
0.90 0.92 0.98 0.98 0.98 0.95 0.92 0.94 0.97 0.98 0.98 0.96 0.90 0.83 0.79 0.73 0.65 0.67 0.62 0.45 0.37 0.32 0.32 0.33 0.35 0.37 0.38 0.40 0.43 0.52 0.58 0.65 0.77 0.93 1.17 1.40 1.56 1.66 1.77 1.95 2.08 2.13 2.15
0.87 0.89 0.96 1.00 1.00 1.00 1.03 1.05 1.03 0.97 0.96 0.94 0.92 0.88 0.83 0.77 0.73 0.80 0.86 0.75 0.63 0.52 0.50 0.50 0.49 0.49 0.50 0.52 0.55 0.65 0.66 0.70 0.76 0.89 1.10 1.34 1.42 1.40 1.44 1.59 1.74 1.82 1.91
0.76 0.83 0.90 0.95 0.98 0.99 1.01 1.02 1.00 0.96 0.93 0.91 0.89 0.87 0.83 0.77 0.75 0.79 0.88 0.98 0.96 0.79 0.67 0.63 0.63 0.64 0.64 0.63 0.63 0.69 0.63 0.74 0.77 0.83 0.94 1.03 1.01 0.95 0.95 1.04 1.17 1.29 1.38
0.68 0.68 0.73 0.78 0.83 0.86 0.88 0.92 0.92 0.86 0.83 0.80 0.78 0.78 0.77 0.72 0.69 0.72 0.80 0.95 1.14 1.10 0.88 0.72 0.70 0.70 0.72 0.70 0.72 0.64 0.55 0.66 0.71 0.72 0.76 0.81 0.79 0.76 0.76 0.81 0.90 1.03 1.11
0.62 0.60 0.60 0.60 0.63 0.69 0.75 0.81 0.82 0.79 0.77 0.73 0.69 0.69 0.69 0.68 0.70 0.73 0.78 0.85 0.98 1.10 1.00 0.75 0.65 0.63 0.66 0.68 0.73 0.63 0.57 0.66 0.65 0.64 0.64 0.67 0.70 0.73 0.75 0.77 0.79 0.85 0.96
0.56 0.55 0.57 0.56 0.55 0.56 0.61 0.68 0.73 0.75 0.76 0.73 0.70 0.68 0.67 0.67 0.69 0.71 0.75 0.79 0.83 0.91 0.93 0.77 0.65 0.62 0.63 0.63 0.64 0.61 0.56 0.51 0.49 0.55 0.55 0.54 0.57 0.63 0.69 0.70 0.70 0.71 0.79
0.48 0.46 0.45 0.46 0.47 0.47 0.50 0.55 0.61 0.64 0.67 0.69 0.71 0.72 0.72 0.73 0.76 0.78 0.80 0.79 0.78 0.78 0.80 0.76 0.64 0.57 0.54 0.51 0.50 0.50 0.48 0.44 0.39 0.45 0.48 0.47 0.49 0.53 0.59 0.59 0.59 0.62 0.68
0.50 0.50 0.46 0.42 0.41 0.42 0.45 0.48 0.51 0.56 0.58 0.60 0.64 0.70 0.73 0.76 0.81 0.81 0.80 0.78 0.74 0.71 0.71 0.72 0.63 0.53 0.48 0.45 0.46 0.44 0.43 0.41 0.37 0.40 0.41 0.41 0.43 0.45 0.48 0.52 0.53 0.53 0.54
0.45 0.45 0.46 0.44 0.41 0.41 0.44 0.47 0.53 0.58 0.62 0.65 0.66 0.68 0.71 0.72 0.72 0.70 0.68 0.67 0.68 0.68 0.67 0.69 0.67 0.59 0.52 0.47 0.48 0.48 0.47 0.40 0.37 0.32 0.33 0.32 0.33 0.33 0.33 0.36 0.39 0.41 0.43
0.39 0.42 0.44 0.44 0.45 0.45 0.49 0.54 0.57 0.63 0.68 0.72 0.74 0.73 0.69 0.66 0.61 0.59 0.57 0.56 0.55 0.60 0.67 0.71 0.67 0.60 0.53 0.50 0.48 0.46 0.48 0.45 0.39 0.32 0.28 0.25 0.22 0.20 0.21 0.25 0.29 0.36 0.45
0.38 0.43 0.49 0.55 0.57 0.62 0.73 0.74 0.69 0.67 0.69 0.68 0.66 0.63 0.61 0.59 0.57 0.58 0.58 0.55 0.57 0.65 0.73 0.73 0.63 0.51 0.40 0.37 0.41 0.48 0.53 0.56 0.47 0.30 0.27 0.25 0.21 0.19 0.20 0.25 0.33 0.40 0.49
0.49 0.56 0.59 0.69 0.73 0.76 0.77 0.70 0.66 0.61 0.62 0.61 0.56 0.51 0.47 0.43 0.44 0.41 0.47 0.52 0.53 0.56 0.59 0.57 0.50 0.39 0.37 0.39 0.52 0.65 0.60 0.55 0.41 0.26 0.26 0.28 0.24 0.23 0.22 0.27 0.39 0.43 0.50
0.59 0.66 0.66 0.69 0.73 0.74 0.70 0.62 0.58 0.51 0.47 0.45 0.42 0.39 0.35 0.34 0.34 0.38 0.45 0.51 0.43 0.38 0.36 0.34 0.35 0.39 0.41 0.42 0.49 0.60 0.58 0.50 0.37 0.29 0.28 0.34 0.27 0.26 0.23 0.26 0.35 0.37 0.41
0.63 0.65 0.64 0.59 0.55 0.54 0.53 0.47 0.44 0.40 0.38 0.36 0.35 0.35 0.35 0.32 0.35 0.49 0.54 0.51 0.39 0.30 0.30 0.34 0.38 0.38 0.36 0.35 0.37 0.53 0.65 0.66 0.49 0.28 0.24 0.28 0.24 0.24 0.26 0.28 0.33 0.37 0.38
0.50 0.48 0.44 0.40 0.37 0.34 0.34 0.34 0.34 0.30 0.30 0.31 0.34 0.35 0.37 0.35 0.41 0.53 0.48 0.46 0.38 0.31 0.32 0.29 0.26 0.25 0.22 0.23 0.30 0.44 0.77 1.03 0.76 0.45 0.22 0.33 0.35 0.39 0.52 0.31 0.30 0.32 0.33